FHV1116 KMEM-KLIT

Flight info

Callsign FHV1116
Flight time 0h 26m
Altitude 22000
Route CHLDR5 ANSWA
Aircraft C750/M-SBDE3FGHRWXY/S

Departure

Time 2026-04-15 20:54
Airport Memphis International Airport (KMEM)

Arrival

Time 2026-04-15 21:20
Airport Bill & Hillary Clinton National Airport/Adams Field (KLIT)
Time Latitude Longitude Altitude Speed Heading
2026-04-15 20:47 35.05434 -89.98250 331 ft 0 kts 271°
2026-04-15 20:51 35.05477 -89.98279 329 ft 13 kts 322°
2026-04-15 20:51 35.05547 -89.98380 331 ft 15 kts 315°
2026-04-15 20:51 35.05565 -89.98484 331 ft 10 kts 252°
2026-04-15 20:51 35.05535 -89.98510 331 ft 0 kts 187°
2026-04-15 20:52 35.05534 -89.98510 331 ft 1 kts 185°
2026-04-15 20:52 35.05468 -89.98508 331 ft 18 kts 177°
2026-04-15 20:52 35.05345 -89.98510 331 ft 17 kts 181°
2026-04-15 20:52 35.05203 -89.98510 331 ft 24 kts 180°
2026-04-15 20:53 35.05024 -89.98572 331 ft 28 kts 206°
2026-04-15 20:53 35.04928 -89.98693 334 ft 14 kts 259°
2026-04-15 20:53 35.04859 -89.98741 331 ft 8 kts 177°
2026-04-15 20:53 35.04778 -89.98739 333 ft 55 kts 178°
2026-04-15 20:54 35.04094 -89.98727 428 ft 131 kts 180°
2026-04-15 20:54 35.03152 -89.98723 1146 ft 143 kts 182°
2026-04-15 20:54 35.02086 -89.98690 1786 ft 166 kts 181°
2026-04-15 20:54 35.00838 -89.98618 2358 ft 194 kts 180°
2026-04-15 20:55 34.99398 -89.98765 2784 ft 224 kts 198°
2026-04-15 20:55 34.97871 -89.99511 3554 ft 244 kts 202°
2026-04-15 20:55 34.96322 -90.00303 4841 ft 242 kts 207°
2026-04-15 20:55 34.95059 -90.01707 5782 ft 251 kts 231°
2026-04-15 20:56 34.94296 -90.03642 6781 ft 260 kts 252°
2026-04-15 20:56 34.94151 -90.05861 7856 ft 266 kts 266°
2026-04-15 20:56 34.94161 -90.08151 8943 ft 273 kts 266°
2026-04-15 20:56 34.94161 -90.10484 10012 ft 278 kts 266°
2026-04-15 20:57 34.94016 -90.12865 10530 ft 297 kts 261°
2026-04-15 20:57 34.93825 -90.15486 10797 ft 325 kts 262°
2026-04-15 20:57 34.93643 -90.18337 11104 ft 346 kts 263°
2026-04-15 20:57 34.93462 -90.21251 12050 ft 344 kts 263°
2026-04-15 20:58 34.93267 -90.24171 12951 ft 347 kts 263°
2026-04-15 20:58 34.93097 -90.27122 13794 ft 351 kts 264°
2026-04-15 20:58 34.92947 -90.30097 14564 ft 353 kts 264°
2026-04-15 20:58 34.92781 -90.33088 15334 ft 355 kts 263°
2026-04-15 20:59 34.92601 -90.36095 16107 ft 357 kts 263°
2026-04-15 20:59 34.92425 -90.39122 16921 ft 359 kts 263°
2026-04-15 20:59 34.92254 -90.42167 17755 ft 361 kts 263°
2026-04-15 20:59 34.92078 -90.45233 18569 ft 364 kts 262°
2026-04-15 21:00 34.91899 -90.48309 19344 ft 366 kts 262°
2026-04-15 21:00 34.91717 -90.51409 20144 ft 367 kts 262°
2026-04-15 21:00 34.91536 -90.54523 20948 ft 370 kts 262°
2026-04-15 21:00 34.91354 -90.57634 21730 ft 366 kts 262°
2026-04-15 21:01 34.91166 -90.60785 21972 ft 384 kts 262°
2026-04-15 21:01 34.90961 -90.64119 21979 ft 403 kts 262°
2026-04-15 21:01 34.90761 -90.67543 21980 ft 406 kts 262°
2026-04-15 21:01 34.90562 -90.70987 21982 ft 408 kts 262°
2026-04-15 21:02 34.90234 -90.74409 21942 ft 402 kts 257°
2026-04-15 21:02 34.89728 -90.77644 21740 ft 384 kts 256°
2026-04-15 21:02 34.89221 -90.80896 21731 ft 390 kts 256°
2026-04-15 21:02 34.88756 -90.84040 21294 ft 366 kts 256°
2026-04-15 21:03 34.88305 -90.87054 20856 ft 361 kts 256°
2026-04-15 21:03 34.87832 -90.90073 20437 ft 364 kts 256°
2026-04-15 21:03 34.87362 -90.93103 20036 ft 364 kts 256°
2026-04-15 21:03 34.86902 -90.96135 19632 ft 364 kts 256°
2026-04-15 21:04 34.86440 -90.99156 19244 ft 363 kts 256°
2026-04-15 21:04 34.85974 -91.02174 18856 ft 362 kts 256°
2026-04-15 21:04 34.85507 -91.05184 18477 ft 361 kts 256°
2026-04-15 21:04 34.85045 -91.08180 18055 ft 360 kts 256°
2026-04-15 21:05 34.84584 -91.11163 17617 ft 358 kts 256°
2026-04-15 21:05 34.84122 -91.14142 17192 ft 357 kts 256°
2026-04-15 21:05 34.83661 -91.17102 16769 ft 356 kts 256°
2026-04-15 21:05 34.83202 -91.20055 16354 ft 354 kts 256°
2026-04-15 21:06 34.82744 -91.22993 15940 ft 353 kts 256°
2026-04-15 21:06 34.82286 -91.25926 15533 ft 352 kts 256°
2026-04-15 21:06 34.81830 -91.28842 15132 ft 351 kts 256°
2026-04-15 21:06 34.81373 -91.31755 14741 ft 350 kts 256°
2026-04-15 21:07 34.80918 -91.34657 14343 ft 349 kts 256°
2026-04-15 21:07 34.80464 -91.37548 13951 ft 348 kts 256°
2026-04-15 21:07 34.80010 -91.40434 13529 ft 346 kts 256°
2026-04-15 21:07 34.79558 -91.43303 13098 ft 344 kts 256°
2026-04-15 21:08 34.79107 -91.46159 12645 ft 343 kts 256°
2026-04-15 21:08 34.78659 -91.48990 12204 ft 338 kts 256°
2026-04-15 21:08 34.78205 -91.51848 11766 ft 342 kts 256°
2026-04-15 21:08 34.77757 -91.54678 11329 ft 339 kts 256°
2026-04-15 21:09 34.77326 -91.57413 10892 ft 318 kts 256°
2026-04-15 21:09 34.76920 -91.59973 10457 ft 300 kts 256°
2026-04-15 21:09 34.76535 -91.62370 10029 ft 286 kts 256°
2026-04-15 21:09 34.76162 -91.64702 9551 ft 276 kts 256°
2026-04-15 21:10 34.75794 -91.67001 9072 ft 272 kts 256°
2026-04-15 21:10 34.75439 -91.69215 8624 ft 270 kts 256°
2026-04-15 21:10 34.75081 -91.71446 8183 ft 268 kts 256°
2026-04-15 21:10 34.74720 -91.73696 7741 ft 267 kts 256°
2026-04-15 21:11 34.74371 -91.75872 7312 ft 265 kts 256°
2026-04-15 21:11 34.74018 -91.78073 6889 ft 265 kts 256°
2026-04-15 21:11 34.73665 -91.80260 6475 ft 262 kts 256°
2026-04-15 21:11 34.73396 -91.82440 5990 ft 263 kts 267°
2026-04-15 21:12 34.73973 -91.84548 5530 ft 271 kts 297°
2026-04-15 21:12 34.75120 -91.86377 5086 ft 272 kts 306°
2026-04-15 21:12 34.76341 -91.88125 4650 ft 271 kts 307°
2026-04-15 21:12 34.77552 -91.89864 4156 ft 266 kts 306°
2026-04-15 21:13 34.78712 -91.91529 3535 ft 251 kts 306°
2026-04-15 21:13 34.79823 -91.93103 2997 ft 238 kts 306°
2026-04-15 21:13 34.80854 -91.94544 2992 ft 218 kts 307°
2026-04-15 21:13 34.81848 -91.95956 2983 ft 222 kts 306°
2026-04-15 21:14 34.82850 -91.97386 2993 ft 224 kts 306°
2026-04-15 21:14 34.83871 -91.98813 2980 ft 224 kts 305°
2026-04-15 21:14 34.84585 -92.00478 2995 ft 221 kts 288°
2026-04-15 21:14 34.85145 -92.02218 2998 ft 221 kts 288°
2026-04-15 21:15 34.85449 -92.04002 2928 ft 212 kts 264°
2026-04-15 21:15 34.84848 -92.05534 2904 ft 199 kts 223°
2026-04-15 21:15 34.83912 -92.06505 2984 ft 151 kts 225°
2026-04-15 21:15 34.83315 -92.07387 2925 ft 123 kts 229°
2026-04-15 21:16 34.82798 -92.08140 2695 ft 114 kts 228°
2026-04-15 21:16 34.82292 -92.08860 2632 ft 110 kts 226°
2026-04-15 21:16 34.81808 -92.09591 2604 ft 113 kts 227°
2026-04-15 21:16 34.81251 -92.10271 2475 ft 113 kts 222°
2026-04-15 21:17 34.80695 -92.10956 2351 ft 116 kts 223°
2026-04-15 21:17 34.80152 -92.11660 2277 ft 112 kts 225°
2026-04-15 21:17 34.79633 -92.12351 2192 ft 112 kts 225°
2026-04-15 21:17 34.79082 -92.13055 2033 ft 117 kts 222°
2026-04-15 21:18 34.78494 -92.13741 1886 ft 115 kts 221°
2026-04-15 21:18 34.77947 -92.14455 1740 ft 116 kts 226°
2026-04-15 21:18 34.77400 -92.15150 1681 ft 114 kts 223°
2026-04-15 21:18 34.76810 -92.15834 1348 ft 120 kts 218°
2026-04-15 21:19 34.76263 -92.16595 1088 ft 114 kts 227°
2026-04-15 21:19 34.75751 -92.17239 916 ft 108 kts 222°
2026-04-15 21:19 34.75242 -92.17894 856 ft 106 kts 228°
2026-04-15 21:19 34.74729 -92.18574 729 ft 112 kts 224°
2026-04-15 21:20 34.74206 -92.19227 581 ft 106 kts 225°
2026-04-15 21:20 34.73697 -92.19878 385 ft 106 kts 225°
2026-04-15 21:20 34.73208 -92.20506 269 ft 92 kts 226°
2026-04-15 21:20 34.72905 -92.20893 263 ft 47 kts 227°
2026-04-15 21:21 34.72818 -92.21044 262 ft 17 kts 248°
2026-04-15 21:21 34.72795 -92.21177 261 ft 15 kts 274°
2026-04-15 21:21 34.72832 -92.21289 263 ft 14 kts 294°
2026-04-15 21:21 34.72876 -92.21408 263 ft 19 kts 293°
2026-04-15 21:22 34.72933 -92.21560 265 ft 19 kts 297°
2026-04-15 21:22 34.72983 -92.21696 267 ft 16 kts 288°
2026-04-15 21:22 34.73053 -92.21858 265 ft 12 kts 330°
2026-04-15 21:22 34.73076 -92.21889 265 ft 3 kts 284°
2026-04-15 21:23 34.73075 -92.21899 266 ft 0 kts 254°